Regional Weather Roundup
Issued by NWS

Home | Current Version | Previous Version | Text Only | Print | Product List | Glossary Off
Versions: 1 2 3 4 5 6 7 8 9 10 11 12 13 14 15 16 17 18 19 20 21 22 23 24 25 26 27 28 29 30 31 32 33 34 35 36 37 38 39 40 41 42 43 44 45 46 47 48 49 50

000
ASUS43 KIND 250709
RWRIN

WEATHER ROUNDUP FOR INDIANA
NATIONAL WEATHER SERVICE INDIANAPOLIS IN
200 AM EST SUN JAN 25 2015

NOTE: "FAIR" INDICATES FEW OR NO CLOUDS BELOW 12,000 FEET WITH NO
SIGNIFICANT WEATHER AND/OR OBSTRUCTIONS TO VISIBILITY.

* - STATION DOES NOT REPORT WEATHER SUCH AS PRECIPITATION OR FOG.

+ - STATION NOT QUALITY CONTROLLED BY THE NATIONAL WEATHER SERVICE.
    USE DATA WITH CAUTION...ESPECIALLY DEWPOINT AND RELATIVE
    HUMIDITY OBSERVATIONS.

INZ001>003-010>013-019-020-250800-
NORTHWEST INDIANA

CITY           SKY/WX    TMP DP  RH WIND       PRES   REMARKS
GARY /AIRPORT/ CLOUDY    35  30  83 CALM      29.68S
KNOX *+        PTCLDY    31  27  84 CALM      29.68R
LA PORTE +     CLOUDY    35  35 100 CALM      29.68F FOG
MICHIGAN CITY+ CLOUDY    32  32 100 CALM      29.69S
MONTICELLO +   CLEAR     31  30  95 CALM      29.68F
RENSSELAER +   PTCLDY    34  34 100 CALM      29.67F FOG
VALPARAISO     CLOUDY    31  31 100 CALM      29.68S FOG

$$

LMZ046-743>745-250800-
SOUTHERN LAKE MICHIGAN

STATION/POSITION TIME  TEMP WIND        PRES
                       AIR  DIR/SP/G
                 (UTC) (F)  (DEG/KT/KT) (MB)
MICHIGAN CITY    0700   35     CALM       N/A

$$

INZ004-005-014>016-021>024-250800-
NORTH CENTRAL INDIANA

CITY           SKY/WX    TMP DP  RH WIND       PRES   REMARKS
GOSHEN         CLOUDY    35  34  96 S6        29.68S FOG     WCI  30
LOGANSPORT +   MOCLDY    32  30  93 SE3       29.69F FOG
PERU/GRISSOM   MOCLDY    32  30  94 S3        29.68F
ROCHESTER +    MOCLDY    36  36 100 CALM      29.69S FOG
SOUTH BEND     CLOUDY    35  31  85 CALM      29.68F
WARSAW +       MOCLDY    34  34 100 CALM      29.68S FOG

$$

INZ006>009-017-018-025>027-250800-
NORTHEAST INDIANA

CITY           SKY/WX    TMP DP  RH WIND       PRES   REMARKS
ANGOLA *+      CLOUDY    34  25  69 CALM      29.67F
AUBURN +       CLOUDY    36  32  87 SW3       29.68F
FORT WAYNE     CLOUDY    35  32  88 SW9       29.70F WCI  28
HUNTINGTON +   MOCLDY    35  30  82 SW5       29.70S WCI  31

$$

INZ028-029-035-036-043>045-051>053-250800-
WEST CENTRAL INDIANA

CITY           SKY/WX    TMP DP  RH WIND       PRES   REMARKS
GREENCASTLE +  CLOUDY    37  28  70 S5        29.70F
LAFAYETTE      CLEAR     32  31  96 CALM      29.68F
TERRE HAUTE    CLOUDY    36  31  82 S6        29.70F

$$

INZ030>032-037>040-046>048-054>057-064-065-250800-
CENTRAL INDIANA

CITY           SKY/WX    TMP DP  RH WIND       PRES   REMARKS
CP ATTERBURY + CLOUDY    37  32  81 S3        29.73F
INDIANAPOLIS   CLOUDY    34  30  85 S5        29.70F WCI  30
-EAGLE CREEK   MOCLDY    35  31  85 CALM      29.70F
KOKOMO *+      MOCLDY    32  28  86 S3        29.69F
MARION +       MOCLDY    32  31  95 S5        29.70F WCI  27
MT COMFORT *+  CLOUDY    32  32 100 S5        29.72S WCI  27
SHELBYVILLE    CLOUDY    36  30  79 S8        29.72F
ZIONSVILLE +   MOCLDY    33  30  88 S6        29.70F WCI  28

$$

INZ033-034-041-042-049-050-058-059-250800-
EAST CENTRAL INDIANA

CITY           SKY/WX    TMP DP  RH WIND       PRES   REMARKS
MUNCIE         MOCLDY    36  31  82 SW8       29.70F

$$

INZ060-061-067>069-081>083-085>088-250800-
SOUTHWEST INDIANA

CITY           SKY/WX    TMP DP  RH WIND       PRES   REMARKS
EVANSVILLE     CLOUDY    43  32  65 SW7       29.77F
HUNTINGBURG *+ CLOUDY    37  28  70 S7        29.77S
WASHINGTON +   CLOUDY    38  29  68 S10       29.72F

$$

INZ062-063-066-070>080-084-089>092-250800-
SOUTH CENTRAL AND SOUTHEAST INDIANA

CITY           SKY/WX    TMP DP  RH WIND       PRES   REMARKS
BLOOMINGTON    CLOUDY    39  31  72 S6        29.71F
SEYMOUR +      CLOUDY    37  30  75 S5        29.75F

$$




USA.gov is the U.S. government's official web portal to all federal, state and local government web resources and services.